[[{"header":{"parameterUnit":"m.s-1","parameterCategory":2,"la1":30.2991,"la2":30.254,"lo1":-89.0895,"lo2":-89.0444,"dy":0.0017,"dx":0.0017,"nx":28,"ny":28,"refTime":"2025-03-07T03:00:00:Z","depth":"0","parameterNumber":2,"parameterNumberName":"U-component_of_CURRENTS"},"data":[0,0,0,0,0,0,0,0,0,0,0,0,0,0,0,0,0,0,0,0,0,0,0,0,0,0,0,0,0,0,0,0,0,0,0,0,0,0,0,0,0,0,0,0,0,0,0,0,0,0,0,0,0,0,0,0,0,0,-0.2919,-0.2921,0,-0.3111,-0.3114,-0.3116,-0.3172,-0.317,-0.3169,-0.3168,-0.3271,-0.3275,-0.3279,0,0,0,0,0,0,0,0,0,0,0,0,0,-0.2739,-0.2741,-0.2919,-0.2921,-0.2923,-0.3111,-0.3114,-0.3117,-0.3172,-0.317,-0.3169,-0.3167,-0.327,-0.3274,-0.3279,0,0,0,0,0,0,0,0,0,0,0,0,0,-0.2864,-0.2742,-0.2919,-0.2972,-0.2978,-0.3111,-0.3114,-0.3118,-0.3172,-0.317,-0.3168,-0.3167,-0.3268,-0.3274,-0.328,-0.3354,0,0,-0.3298,-0.33,0,0,0,0,0,0,0,0,-0.2857,-0.2871,-0.2962,-0.2968,-0.2976,-0.3114,-0.3088,-0.3191,-0.3173,-0.3101,-0.3168,-0.3166,-0.321,-0.3221,-0.3266,-0.3359,-0.3363,-0.3298,-0.3302,-0.3304,-0.3306,0,0,0,0,0,0,0,-0.2848,-0.2864,-0.2998,-0.2964,-0.2973,-0.3034,-0.3048,-0.3109,-0.3164,-0.3107,-0.3111,-0.3129,-0.3213,-0.326,-0.3268,-0.3364,-0.3298,-0.3303,-0.3307,-0.3309,-0.3503,-0.3504,0,0,0,0,0,0,-0.2815,-0.2855,-0.2991,-0.3003,-0.2908,-0.3038,-0.3054,-0.3073,-0.3165,-0.3178,-0.3131,-0.3131,-0.3251,-0.3261,-0.3272,-0.332,-0.3304,-0.331,-0.3313,-0.3501,-0.3503,-0.3505,0,0,0,0,0,0,-0.281,-0.2825,-0.2984,-0.2932,-0.2955,-0.3041,-0.3063,-0.3078,-0.3116,-0.3184,-0.3194,-0.3151,-0.325,-0.3263,-0.3341,-0.3325,-0.3312,-0.3318,-0.3499,-0.3502,-0.3504,-0.3444,0,0,0,0,0,0,-0.2805,-0.2823,-0.2825,-0.2929,-0.2957,-0.3076,-0.3065,-0.3083,-0.3129,-0.3131,-0.3205,-0.3214,-0.3249,-0.3333,-0.3347,-0.3333,-0.3322,-0.3497,-0.35,-0.3503,-0.3444,-0.3444,-0.3445,0,0,0,0,0,-0.2797,-0.2828,-0.2824,-0.2841,-0.2958,-0.3078,-0.31,-0.3155,-0.3131,-0.3175,-0.3217,-0.3211,-0.336,-0.334,-0.3356,-0.3343,-0.3496,-0.35,-0.3503,-0.3444,-0.3444,-0.3445,0,0,0,0,0,0,-0.2759,-0.2839,-0.2837,-0.2889,-0.2973,-0.3086,-0.3128,-0.3152,-0.3224,-0.3215,-0.3252,-0.3267,-0.3324,-0.336,-0.3336,-0.3412,-0.3419,-0.3426,-0.3369,-0.337,-0.337,-0.3321,-0.3327,0,0,0,0,0,-0.2746,-0.2778,-0.2872,-0.2909,-0.2949,-0.3028,-0.3077,-0.3122,-0.3197,-0.3225,-0.3275,-0.332,-0.3359,-0.3383,-0.3445,-0.3498,-0.3466,-0.3498,-0.3498,-0.3498,-0.3473,-0.34,-0.3388,-0.3517,-0.3517,-0.3517,0,0,-0.2737,-0.2785,-0.2801,-0.2901,-0.2963,-0.3046,-0.3055,-0.3143,-0.3189,-0.3225,-0.3299,-0.3335,-0.3379,-0.3437,-0.3462,-0.3457,-0.3455,-0.3502,-0.3501,-0.3476,-0.3402,-0.3388,-0.3376,-0.3519,-0.3519,-0.3519,0,0,-0.2767,-0.2782,-0.2832,-0.2905,-0.3004,-0.3059,-0.3076,-0.3194,-0.3217,-0.3315,-0.3317,-0.3333,-0.3454,-0.3441,-0.3453,-0.3493,-0.3464,-0.3526,-0.3476,-0.3405,-0.3392,-0.3379,-0.3346,-0.3331,-0.3516,-0.3516,-0.3516,0,-0.275,-0.281,-0.287,-0.2951,-0.2985,-0.3056,-0.3117,-0.3182,-0.3304,-0.3291,-0.3339,-0.3399,-0.3439,-0.3409,-0.3435,-0.348,-0.3459,-0.3462,-0.3396,-0.3384,-0.3372,-0.334,-0.3324,-0.3514,-0.3514,-0.3514,-0.3514,0,-0.2833,-0.2873,-0.2915,-0.3009,-0.3071,-0.3137,-0.3219,-0.3262,-0.3289,-0.3326,-0.3331,-0.3387,-0.3393,-0.3414,-0.345,-0.3377,-0.3397,-0.3403,-0.3375,-0.3353,-0.3325,-0.3309,-0.351,-0.3511,-0.3512,-0.3512,0,0,-0.2791,-0.2935,-0.294,-0.2955,-0.3087,-0.3132,-0.3195,-0.3232,-0.3213,-0.3309,-0.3266,-0.3323,-0.3308,-0.3319,-0.3328,-0.3279,-0.3199,-0.3314,-0.3311,-0.3244,-0.3068,-0.3005,-0.2982,-0.319,-0.3186,-0.3184,-0.3088,0,-0.2814,-0.2917,-0.2992,-0.3051,-0.3092,-0.3147,-0.3187,-0.3225,-0.3255,-0.3254,-0.3234,-0.324,-0.3284,-0.3271,-0.3224,-0.3223,-0.3153,-0.3226,-0.3132,-0.3129,-0.3041,-0.2958,-0.283,-0.2726,-0.3072,-0.307,-0.3068,0,-0.2852,-0.2899,-0.2961,-0.3001,-0.302,-0.3071,-0.3052,-0.3105,-0.3117,-0.3136,-0.311,-0.3132,-0.3083,-0.3126,-0.3043,-0.3096,-0.3066,-0.3055,-0.305,-0.2989,-0.3033,-0.2803,-0.2684,-0.2672,-0.3043,-0.3045,-0.3047,0,-0.2739,-0.285,-0.286,-0.2893,-0.299,-0.298,-0.301,-0.3043,-0.3049,-0.3039,-0.3046,-0.2999,-0.299,-0.2938,-0.296,-0.2991,-0.2873,-0.2904,-0.2799,-0.2797,-0.2664,-0.2654,-0.2477,-0.278,-0.278,-0.2781,-0.2781,0,-0.2702,-0.2703,-0.2803,-0.2811,-0.279,-0.2885,-0.2859,-0.2885,-0.292,-0.2906,-0.2958,-0.2933,-0.2944,-0.2913,-0.2905,-0.281,-0.2816,-0.275,-0.2739,-0.2649,-0.2639,-0.2607,-0.2659,-0.2777,-0.2778,-0.2779,-0.2779,0,-0.258,-0.266,-0.267,-0.2737,-0.2749,-0.2726,-0.2791,-0.2776,-0.2834,-0.2818,-0.2816,-0.2867,-0.2822,-0.2828,-0.2757,-0.273,-0.2598,-0.2607,-0.2526,-0.2503,-0.2379,-0.2434,-0.2264,-0.22,-0.2447,-0.2444,-0.2442,0,-0.2525,-0.2525,-0.2582,-0.2579,-0.2607,-0.2612,-0.262,-0.2704,-0.2713,-0.2766,-0.2744,-0.2732,-0.2687,-0.2593,-0.2526,-0.2439,-0.2473,-0.2284,-0.2286,-0.2305,-0.2359,-0.2418,-0.2381,-0.211,-0.2106,-0.2102,-0.2099,0,-0.2393,-0.2421,-0.2428,-0.2432,-0.2437,-0.2444,-0.2472,-0.2477,-0.2567,-0.2576,-0.2565,-0.2532,-0.2463,-0.2323,-0.2245,-0.2184,-0.2225,-0.2199,-0.2207,-0.2047,-0.2105,-0.2061,-0.2296,-0.2064,-0.2068,-0.207,-0.2072,-0.2074,-0.227,-0.2247,-0.2267,-0.225,-0.2263,-0.2251,-0.2206,-0.2266,-0.2259,-0.2247,-0.2328,-0.2252,-0.219,-0.2043,-0.1981,-0.185,-0.1947,-0.1801,-0.1861,-0.1915,-0.1845,-0.2019,-0.1788,-0.179,-0.1791,-0.1793,-0.1794,0,-0.2108,-0.2101,-0.2082,-0.2062,-0.2012,-0.2077,-0.2077,-0.2019,-0.196,-0.2015,-0.1986,-0.1927,-0.1783,-0.1752,-0.1636,-0.1553,-0.1529,-0.1535,-0.1578,-0.1551,-0.1661,-0.1636,-0.1373,-0.1373,-0.1373,-0.1373,-0.1373,-0.1373,-0.2023,-0.195,-0.1944,-0.1809,-0.1793,-0.1679,-0.1644,-0.1597,-0.1605,-0.1546,-0.1553,-0.1588,-0.1592,-0.1674,-0.1539,-0.1449,-0.1442,-0.1385,-0.145,-0.1546,-0.1576,-0.1605,-0.159,-0.1321,-0.1321,-0.1253,-0.1253,-0.1253]},{"header":{"parameterUnit":"m.s-1","parameterCategory":2,"la1":30.2991,"la2":30.254,"lo1":-89.0895,"lo2":-89.0444,"dy":0.0017,"dx":0.0017,"nx":28,"ny":28,"refTime":"2025-03-07T03:00:00:Z","depth":"0","parameterNumber":3,"parameterNumberName":"V-component_of_CURRENTS"},"data":[0,0,0,0,0,0,0,0,0,0,0,0,0,0,0,0,0,0,0,0,0,0,0,0,0,0,0,0,0,0,0,0,0,0,0,0,0,0,0,0,0,0,0,0,0,0,0,0,0,0,0,0,0,0,0,0,0,0,-0.0273,-0.0272,0,-0.0156,-0.0154,-0.0152,-0.0072,-0.0072,-0.0071,-0.0071,0.0168,0.0174,0.018,0,0,0,0,0,0,0,0,0,0,0,0,0,-0.0339,-0.0339,-0.0273,-0.0272,-0.027,-0.0156,-0.0154,-0.0152,-0.0072,-0.0072,-0.0071,-0.0071,0.0166,0.0173,0.018,0,0,0,0,0,0,0,0,0,0,0,0,0,-0.0273,-0.0339,-0.0273,-0.0218,-0.0212,-0.0156,-0.0154,-0.0152,-0.0072,-0.0072,-0.0071,-0.0071,0.0164,0.0172,0.0181,0.0225,0,0,0.0209,0.0212,0,0,0,0,0,0,0,0,-0.0277,-0.0271,-0.0228,-0.0222,-0.0215,-0.013,-0.009,-0.002,-0.0073,-0.0123,-0.0071,-0.007,0.0078,0.0094,0.0116,0.0236,0.0246,0.0209,0.0215,0.0219,0.0221,0,0,0,0,0,0,0,-0.0282,-0.0275,-0.0224,-0.0226,-0.0219,-0.0169,-0.016,-0.0076,-0.0024,-0.0119,-0.0113,-0.0104,0.0082,0.0107,0.0122,0.025,0.0209,0.0217,0.0223,0.0226,0.0456,0.0456,0,0,0,0,0,0,-0.0306,-0.028,-0.0228,-0.0221,-0.0248,-0.0169,-0.0158,-0.0156,-0.0027,-0.0008,-0.0104,-0.01,0.0091,0.0112,0.0131,0.0185,0.0219,0.0227,0.0232,0.0455,0.0456,0.0457,0,0,0,0,0,0,-0.0308,-0.0303,-0.0233,-0.0249,-0.0237,-0.017,-0.0167,-0.0154,-0.013,-0.0018,0.0004,-0.0094,0.0092,0.0119,0.0207,0.0195,0.0231,0.0239,0.0454,0.0455,0.0456,0.0296,0,0,0,0,0,0,-0.0311,-0.0305,-0.0309,-0.0251,-0.0237,-0.0208,-0.0167,-0.0152,-0.0126,-0.012,-0.0002,0.0021,0.0095,0.0193,0.0216,0.0208,0.0246,0.0453,0.0455,0.0456,0.0301,0.0292,0.0284,0,0,0,0,0,-0.0314,-0.0329,-0.031,-0.0304,-0.0246,-0.0208,-0.0196,-0.0144,-0.0127,-0.012,-0.0037,0.0017,0.0218,0.02,0.0227,0.0222,0.0453,0.0454,0.0456,0.0304,0.0294,0.0284,0,0,0,0,0,0,-0.0357,-0.0321,-0.0299,-0.0302,-0.0261,-0.0196,-0.0188,-0.0154,-0.0085,-0.0077,0.0028,0.0057,0.013,0.0206,0.0184,0.0297,0.0344,0.0351,0.022,0.0211,0.0203,0.018,0.0254,0,0,0,0,0,-0.0372,-0.0375,-0.0325,-0.0325,-0.0312,-0.0252,-0.023,-0.0196,-0.0131,-0.0102,-0.002,0.0075,0.0158,0.0205,0.0294,0.0354,0.0408,0.0372,0.0364,0.0356,0.0359,0.0399,0.0392,0.0462,0.0462,0.0462,0,0,-0.0387,-0.0369,-0.0368,-0.0335,-0.03,-0.0286,-0.0237,-0.0214,-0.0192,-0.0084,-0.0027,0.0051,0.017,0.0234,0.0274,0.0295,0.0368,0.0358,0.0349,0.0357,0.04,0.0392,0.0386,0.0463,0.0463,0.0462,0,0,-0.0429,-0.0406,-0.0426,-0.0398,-0.036,-0.0318,-0.0318,-0.0256,-0.0219,-0.0153,-0.0077,-0.0012,0.0126,0.0189,0.0244,0.0249,0.0322,0.0282,0.0219,0.0256,0.025,0.0245,0.0301,0.0302,0.0276,0.0275,0.0275,0,-0.0449,-0.0464,-0.0422,-0.043,-0.0413,-0.034,-0.0348,-0.0297,-0.0211,-0.0185,-0.0147,0.0018,0.0104,0.0172,0.0172,0.0225,0.0267,0.0234,0.0239,0.0236,0.0233,0.0292,0.0296,0.0268,0.0269,0.0269,0.027,0,-0.0504,-0.0508,-0.0517,-0.0501,-0.0476,-0.047,-0.0401,-0.0367,-0.0312,-0.0258,-0.018,-0.0069,0.0025,0.0057,0.0121,0.0146,0.0188,0.0215,0.0246,0.0215,0.0282,0.0288,0.0257,0.026,0.0262,0.0264,0,0,-0.0567,-0.056,-0.0561,-0.0565,-0.0515,-0.05,-0.0467,-0.0417,-0.0398,-0.0308,-0.0277,-0.0155,-0.0109,-0.0042,0.0032,0.0067,0.0078,0.0123,0.0128,0.0147,0.0171,0.023,0.0243,0.0092,0.0093,0.0093,0.0222,0,-0.0621,-0.066,-0.0633,-0.0648,-0.0658,-0.0587,-0.056,-0.0503,-0.0433,-0.0379,-0.0278,-0.0207,-0.014,-0.0104,-0.0065,0.0055,0.0088,0.0042,0.0229,0.0235,0.0263,0.025,0.0304,0.0425,0.0228,0.0229,0.023,0,-0.0685,-0.07,-0.0739,-0.0725,-0.0723,-0.0713,-0.0665,-0.063,-0.0538,-0.0484,-0.0413,-0.0319,-0.0235,-0.0181,-0.0023,-0.0058,0.0041,0.0126,0.0133,0.025,0.0305,0.0431,0.0445,0.0618,0.0241,0.024,0.0239,0,-0.0756,-0.0771,-0.0806,-0.0801,-0.0772,-0.0771,-0.0745,-0.0671,-0.0642,-0.0553,-0.0519,-0.0404,-0.033,-0.0208,-0.0018,-0.0027,0.016,0.0173,0.032,0.0326,0.0444,0.046,0.0623,0.0265,0.0265,0.0264,0.0264,0,-0.0827,-0.085,-0.0844,-0.086,-0.0888,-0.0842,-0.0847,-0.0801,-0.0736,-0.0704,-0.0584,-0.052,-0.0337,-0.0196,-0.0044,0.0171,0.0143,0.0315,0.036,0.0393,0.0403,0.062,0.0684,0.0269,0.0268,0.0267,0.0266,0,-0.0895,-0.0895,-0.0931,-0.0925,-0.0926,-0.0943,-0.0919,-0.0915,-0.0843,-0.0798,-0.0771,-0.0605,-0.0411,-0.021,0.0017,0.015,0.046,0.042,0.0459,0.0505,0.0785,0.0838,0.1058,0.1168,0.0593,0.0595,0.0597,0,-0.0935,-0.0964,-0.0985,-0.101,-0.1011,-0.1026,-0.1033,-0.0977,-0.0961,-0.0835,-0.0813,-0.0622,-0.0458,-0.0093,0.0173,0.0454,0.0577,0.0654,0.0643,0.0816,0.0908,0.094,0.1018,0.0745,0.0748,0.075,0.0752,0,-0.0997,-0.1002,-0.1028,-0.1085,-0.111,-0.1133,-0.1133,-0.1136,-0.1054,-0.0982,-0.0841,-0.0698,-0.0333,0.0019,0.0376,0.0549,0.0793,0.071,0.0882,0.1036,0.1091,0.1213,0.0656,0.0773,0.0771,0.0769,0.0768,0.0767,-0.1031,-0.1066,-0.1099,-0.1146,-0.1184,-0.1215,-0.1219,-0.119,-0.1139,-0.099,-0.0856,-0.0566,-0.01,0.0425,0.0616,0.104,0.0986,0.1167,0.1217,0.1233,0.1338,0.0831,0.0997,0.0996,0.0996,0.0995,0.0994,0,-0.1064,-0.1098,-0.1154,-0.1206,-0.1252,-0.1253,-0.1261,-0.122,-0.1137,-0.0947,-0.0756,-0.0166,0.0308,0.0744,0.13,0.1532,0.1581,0.1648,0.1713,0.1769,0.1328,0.1334,0.159,0.159,0.159,0.1589,0.1589,0.1589,-0.1081,-0.1134,-0.116,-0.1236,-0.1275,-0.1293,-0.1286,-0.1194,-0.104,-0.0677,-0.031,-0.0001,0.0612,0.1424,0.1941,0.1996,0.2197,0.2178,0.2279,0.1979,0.1938,0.1898,0.1921,0.2296,0.2297,0.2719,0.2723,0.2726]}],[{"header":{"parameterUnit":"m.s-1","parameterCategory":2,"la1":30.2991,"la2":30.254,"lo1":-89.0895,"lo2":-89.0444,"dy":0.0017,"dx":0.0017,"nx":28,"ny":28,"refTime":"2025-03-07T03:00:00:Z","depth":"2","parameterNumber":2,"parameterNumberName":"U-component_of_CURRENTS"},"data":[0,0,0,0,0,0,0,0,0,0,0,0,0,0,0,0,0,0,0,0,0,0,0,0,0,0,0,0,0,0,0,0,0,0,0,0,0,0,0,0,0,0,0,0,0,0,0,0,0,0,0,0,0,0,0,0,0,0,-0.2456,-0.2457,0,-0.2508,-0.2508,-0.2508,-0.2483,-0.2482,-0.2481,-0.248,-0.2478,-0.2479,-0.248,0,0,0,0,0,0,0,0,0,0,0,0,0,-0.2345,-0.2347,-0.2456,-0.2457,-0.2458,-0.2508,-0.2508,-0.2508,-0.2483,-0.2482,-0.2481,-0.2479,-0.2478,-0.2479,-0.248,0,0,0,0,0,0,0,0,0,0,0,0,0,-0.2391,-0.2348,-0.2456,-0.2454,-0.2454,-0.2508,-0.2508,-0.2508,-0.2483,-0.2482,-0.248,-0.2479,-0.2478,-0.2479,-0.248,-0.2519,0,0,-0.2484,-0.2485,0,0,0,0,0,0,0,0,-0.2389,-0.2395,-0.2453,-0.2454,-0.2455,-0.249,-0.2469,-0.2511,-0.2484,-0.2469,-0.248,-0.2478,-0.2481,-0.2482,-0.2491,-0.2519,-0.2519,-0.2484,-0.2485,-0.2486,-0.2486,0,0,0,0,0,0,0,-0.2386,-0.2393,-0.2473,-0.2454,-0.2455,-0.2454,-0.2458,-0.2476,-0.2479,-0.247,-0.2469,-0.2481,-0.248,-0.2489,-0.249,-0.2519,-0.2484,-0.2486,-0.2486,-0.2487,-0.2598,-0.26,0,0,0,0,0,0,-0.2388,-0.239,-0.2471,-0.2475,-0.2421,-0.2457,-0.2462,-0.2478,-0.248,-0.248,-0.2482,-0.248,-0.2488,-0.2489,-0.249,-0.252,-0.2486,-0.2487,-0.2488,-0.2596,-0.2599,-0.2601,0,0,0,0,0,0,-0.2385,-0.2395,-0.2469,-0.2436,-0.2445,-0.2461,-0.2479,-0.248,-0.2488,-0.249,-0.2489,-0.2489,-0.2487,-0.2488,-0.2523,-0.252,-0.2488,-0.2489,-0.2594,-0.2597,-0.26,-0.2591,0,0,0,0,0,0,-0.2382,-0.2394,-0.24,-0.2436,-0.2448,-0.2502,-0.2481,-0.2482,-0.2499,-0.2496,-0.2497,-0.2495,-0.2486,-0.2521,-0.2525,-0.2522,-0.249,-0.2591,-0.2595,-0.2599,-0.2589,-0.2594,-0.2598,0,0,0,0,0,-0.2378,-0.2398,-0.24,-0.241,-0.2458,-0.2504,-0.2509,-0.2512,-0.2501,-0.2512,-0.2523,-0.2495,-0.2548,-0.2525,-0.2528,-0.2525,-0.2589,-0.2594,-0.2599,-0.2587,-0.2593,-0.2598,0,0,0,0,0,0,-0.235,-0.2399,-0.2401,-0.2433,-0.2466,-0.25,-0.2513,-0.252,-0.2538,-0.2534,-0.2527,-0.2528,-0.2556,-0.2561,-0.2534,-0.2576,-0.2563,-0.2569,-0.2553,-0.2559,-0.2563,-0.2558,-0.2491,0,0,0,0,0,-0.235,-0.2375,-0.2421,-0.2443,-0.2463,-0.2489,-0.2506,-0.2515,-0.2541,-0.2546,-0.2551,-0.2564,-0.2582,-0.2585,-0.2605,-0.2631,-0.2611,-0.2635,-0.264,-0.2643,-0.2646,-0.2617,-0.2618,-0.2617,-0.2617,-0.2617,0,0,-0.2344,-0.2374,-0.2387,-0.2438,-0.2461,-0.2497,-0.2494,-0.2529,-0.255,-0.2545,-0.2572,-0.2584,-0.2598,-0.2623,-0.2635,-0.2621,-0.2636,-0.2649,-0.2651,-0.2653,-0.2622,-0.2621,-0.2621,-0.262,-0.262,-0.2619,0,0,-0.2352,-0.2375,-0.2401,-0.2434,-0.248,-0.2503,-0.2516,-0.256,-0.2568,-0.2611,-0.2607,-0.2624,-0.2658,-0.2657,-0.2663,-0.2713,-0.2667,-0.272,-0.2725,-0.2696,-0.2695,-0.2693,-0.2664,-0.266,-0.2713,-0.2713,-0.2713,0,-0.234,-0.238,-0.2414,-0.2451,-0.2475,-0.2507,-0.2539,-0.2565,-0.2611,-0.2619,-0.262,-0.2663,-0.2671,-0.2684,-0.2704,-0.2716,-0.2695,-0.2691,-0.2696,-0.2694,-0.2692,-0.2663,-0.2658,-0.2714,-0.2714,-0.2714,-0.2713,0,-0.2371,-0.2401,-0.2422,-0.2474,-0.2507,-0.2541,-0.2587,-0.2613,-0.263,-0.2647,-0.2673,-0.2692,-0.2707,-0.2715,-0.2725,-0.2723,-0.271,-0.2704,-0.2666,-0.2691,-0.266,-0.2655,-0.2714,-0.2714,-0.2714,-0.2714,0,0,-0.2336,-0.2425,-0.2428,-0.2448,-0.252,-0.2544,-0.2592,-0.2633,-0.2643,-0.2681,-0.2685,-0.2725,-0.2722,-0.2732,-0.2734,-0.2718,-0.269,-0.2709,-0.2707,-0.2653,-0.2621,-0.2538,-0.2525,-0.2673,-0.2672,-0.2672,-0.2602,0,-0.2341,-0.2401,-0.2449,-0.2492,-0.2522,-0.257,-0.2605,-0.2644,-0.2671,-0.2687,-0.2698,-0.271,-0.273,-0.2727,-0.2718,-0.2707,-0.2679,-0.271,-0.2631,-0.2629,-0.2528,-0.2517,-0.2328,-0.2243,-0.2597,-0.2596,-0.2595,0,-0.2345,-0.2383,-0.2431,-0.2489,-0.2506,-0.2536,-0.2577,-0.2614,-0.2654,-0.2672,-0.2688,-0.2698,-0.2703,-0.2704,-0.2677,-0.2693,-0.2661,-0.2642,-0.2639,-0.2559,-0.2536,-0.2281,-0.222,-0.2586,-0.2587,-0.2588,-0.2588,0,-0.2282,-0.2361,-0.2391,-0.2415,-0.2494,-0.2511,-0.2546,-0.2599,-0.262,-0.2651,-0.2662,-0.2672,-0.267,-0.2644,-0.2635,-0.2646,-0.2586,-0.2587,-0.2477,-0.2471,-0.2295,-0.2274,-0.2541,-0.2541,-0.2542,-0.2542,-0.2542,0,-0.2258,-0.2274,-0.236,-0.2371,-0.2388,-0.2463,-0.248,-0.252,-0.2572,-0.2579,-0.2638,-0.2632,-0.2654,-0.2634,-0.2615,-0.253,-0.2564,-0.2469,-0.2441,-0.229,-0.227,-0.2564,-0.2568,-0.2539,-0.254,-0.254,-0.2541,0,-0.2173,-0.2241,-0.2266,-0.2341,-0.2358,-0.2363,-0.2433,-0.2445,-0.2515,-0.2525,-0.2533,-0.2592,-0.2559,-0.2566,-0.2519,-0.2488,-0.2425,-0.2381,-0.2207,-0.216,-0.2334,-0.2338,-0.224,-0.2236,-0.2233,-0.2231,-0.2228,0,-0.2132,-0.2141,-0.221,-0.2217,-0.2245,-0.2276,-0.2294,-0.2388,-0.2409,-0.2484,-0.2473,-0.2478,-0.2436,-0.2361,-0.2293,-0.2211,-0.2315,-0.201,-0.1995,-0.2316,-0.23,-0.231,-0.2318,-0.1761,-0.1755,-0.175,-0.1746,0,-0.203,-0.2061,-0.2079,-0.2099,-0.2118,-0.214,-0.2181,-0.2194,-0.2293,-0.2312,-0.2312,-0.2284,-0.2224,-0.2053,-0.1978,-0.1915,-0.2013,-0.1909,-0.2259,-0.1877,-0.1861,-0.1847,-0.1871,-0.1704,-0.1708,-0.1711,-0.1713,-0.1715,-0.1931,-0.192,-0.1951,-0.1951,-0.1978,-0.1977,-0.1946,-0.2004,-0.2007,-0.1998,-0.2079,-0.1979,-0.1962,-0.1726,-0.1632,-0.1569,-0.1711,-0.1647,-0.1662,-0.1683,-0.165,-0.1631,-0.1424,-0.1427,-0.1429,-0.1431,-0.1433,0,-0.1795,-0.18,-0.1798,-0.1797,-0.1766,-0.183,-0.1839,-0.1785,-0.1731,-0.175,-0.1717,-0.1523,-0.1396,-0.1389,-0.1211,-0.1183,-0.1184,-0.1144,-0.1146,-0.1188,-0.1225,-0.1171,-0.0817,-0.0815,-0.0813,-0.0812,0,0,-0.1722,-0.1673,-0.1674,-0.1576,-0.1573,-0.1482,-0.1452,-0.14,-0.1378,-0.1282,-0.1229,-0.1309,-0.1332,-0.1078,-0.1016,-0.0885,-0.1029,-0.0835,-0.1324,-0.1367,-0.1402,-0.1504,-0.1465,0,0,0,0,0]},{"header":{"parameterUnit":"m.s-1","parameterCategory":2,"la1":30.2991,"la2":30.254,"lo1":-89.0895,"lo2":-89.0444,"dy":0.0017,"dx":0.0017,"nx":28,"ny":28,"refTime":"2025-03-07T03:00:00:Z","depth":"2","parameterNumber":3,"parameterNumberName":"V-component_of_CURRENTS"},"data":[0,0,0,0,0,0,0,0,0,0,0,0,0,0,0,0,0,0,0,0,0,0,0,0,0,0,0,0,0,0,0,0,0,0,0,0,0,0,0,0,0,0,0,0,0,0,0,0,0,0,0,0,0,0,0,0,0,0,-0.0269,-0.0268,0,-0.0199,-0.0198,-0.0197,-0.0137,-0.0137,-0.0136,-0.0135,0.0013,0.0017,0.002,0,0,0,0,0,0,0,0,0,0,0,0,0,-0.0311,-0.0311,-0.0269,-0.0268,-0.0267,-0.0199,-0.0198,-0.0197,-0.0137,-0.0137,-0.0136,-0.0135,0.0012,0.0016,0.002,0,0,0,0,0,0,0,0,0,0,0,0,0,-0.0273,-0.0311,-0.0269,-0.0229,-0.0224,-0.0199,-0.0198,-0.0197,-0.0138,-0.0137,-0.0135,-0.0134,0.0011,0.0016,0.0021,0.0029,0,0,0.0036,0.0038,0,0,0,0,0,0,0,0,-0.0275,-0.0271,-0.0236,-0.0231,-0.0227,-0.0175,-0.0158,-0.0117,-0.0138,-0.0171,-0.0135,-0.0134,-0.0043,-0.0033,-0.0025,0.0036,0.0043,0.0036,0.0039,0.0041,0.0043,0,0,0,0,0,0,0,-0.0278,-0.0274,-0.0242,-0.0235,-0.0229,-0.02,-0.0194,-0.015,-0.0113,-0.0168,-0.0164,-0.0155,-0.004,-0.003,-0.002,0.0045,0.0036,0.004,0.0043,0.0045,0.016,0.016,0,0,0,0,0,0,-0.0289,-0.0277,-0.0244,-0.024,-0.0248,-0.0201,-0.0194,-0.0193,-0.0115,-0.0102,-0.0156,-0.0153,-0.0039,-0.0026,-0.0015,0.0014,0.0041,0.0046,0.0049,0.016,0.016,0.0161,0,0,0,0,0,0,-0.029,-0.0287,-0.0247,-0.0255,-0.0248,-0.0201,-0.0201,-0.0192,-0.0179,-0.0107,-0.0092,-0.0151,-0.0037,-0.0022,0.0024,0.002,0.0048,0.0053,0.016,0.016,0.016,0.0063,0,0,0,0,0,0,-0.0292,-0.0288,-0.0293,-0.0257,-0.0248,-0.0241,-0.0202,-0.0192,-0.0175,-0.017,-0.0098,-0.0083,-0.0035,0.0016,0.0029,0.0027,0.0056,0.016,0.016,0.016,0.0066,0.006,0.0055,0,0,0,0,0,-0.0294,-0.0312,-0.0294,-0.0289,-0.0256,-0.0242,-0.0236,-0.0198,-0.0176,-0.018,-0.0125,-0.0085,0.0027,0.002,0.0035,0.0035,0.016,0.016,0.016,0.0069,0.0061,0.0055,0,0,0,0,0,0,-0.0331,-0.0306,-0.0286,-0.0294,-0.0271,-0.0232,-0.0231,-0.0205,-0.0167,-0.0158,-0.0088,-0.007,-0.0031,0.0016,0.0007,0.0071,0.0102,0.0105,0.0027,0.0021,0.0015,0.0009,0.0061,0,0,0,0,0,-0.0343,-0.0349,-0.0316,-0.0321,-0.0314,-0.0273,-0.0262,-0.0238,-0.0199,-0.0182,-0.0131,-0.0071,-0.002,0.0011,0.0059,0.009,0.0141,0.0103,0.0097,0.0092,0.0099,0.0164,0.0164,0.0161,0.0161,0.0161,0,0,-0.0357,-0.0344,-0.0346,-0.0329,-0.0308,-0.0308,-0.0264,-0.0256,-0.0246,-0.0171,-0.0144,-0.0093,-0.0017,0.0018,0.0041,0.0058,0.0117,0.0092,0.0087,0.0097,0.0164,0.0164,0.0165,0.0161,0.0161,0.0161,0,0,-0.0398,-0.038,-0.0401,-0.0388,-0.0365,-0.0338,-0.0339,-0.0304,-0.0278,-0.025,-0.0189,-0.0139,-0.0072,-0.0014,0.0025,0.0019,0.008,0.0031,0.0001,0.0063,0.0063,0.0065,0.0112,0.0118,0.0032,0.0032,0.0031,0,-0.0415,-0.0433,-0.0404,-0.0419,-0.0409,-0.0357,-0.0371,-0.0341,-0.0293,-0.0267,-0.0252,-0.014,-0.0082,-0.0017,-0.0021,0.0006,0.0044,0.0015,0.0054,0.0056,0.0059,0.0108,0.0116,0.0027,0.0027,0.0028,0.0028,0,-0.0471,-0.0479,-0.0491,-0.0488,-0.0476,-0.0481,-0.0435,-0.0415,-0.0377,-0.0337,-0.0275,-0.02,-0.0127,-0.0106,-0.0066,-0.0015,0.0004,0.0031,0.0064,0.0053,0.0105,0.0115,0.002,0.0022,0.0023,0.0024,0,0,-0.0523,-0.053,-0.0532,-0.0537,-0.0512,-0.0507,-0.0488,-0.0449,-0.0426,-0.0372,-0.0334,-0.025,-0.0204,-0.0155,-0.0096,-0.0042,0.0002,-0.0006,-0.0001,0.0028,0.0126,0.0152,0.0166,0.0028,0.0029,0.0031,0.0147,0,-0.0572,-0.0617,-0.0599,-0.0623,-0.0637,-0.0581,-0.0566,-0.0519,-0.0467,-0.0419,-0.0324,-0.0269,-0.0222,-0.019,-0.013,-0.0027,0.0027,-0.0033,0.0145,0.015,0.0165,0.0179,0.0153,0.0255,0.0157,0.0159,0.016,0,-0.0633,-0.0651,-0.0692,-0.0682,-0.0682,-0.0683,-0.0636,-0.0615,-0.0527,-0.0484,-0.0408,-0.0333,-0.0237,-0.0203,-0.0034,-0.0078,0.0015,0.0092,0.0099,0.0169,0.0196,0.0258,0.0279,0.0178,0.0177,0.0175,0.0174,0,-0.0689,-0.0711,-0.0744,-0.0744,-0.0728,-0.0724,-0.0706,-0.0637,-0.0611,-0.0522,-0.049,-0.0366,-0.0299,-0.0171,-0.0011,-0.0023,0.0172,0.0182,0.0296,0.0299,0.0338,0.0341,0.0303,0.0303,0.0303,0.0303,0.0302,0,-0.075,-0.0773,-0.0774,-0.0793,-0.0816,-0.078,-0.078,-0.0738,-0.0675,-0.0642,-0.0531,-0.0469,-0.0289,-0.0154,-0.002,0.0173,0.0173,0.0301,0.0338,0.0302,0.0301,0.0287,0.0284,0.0307,0.0306,0.0305,0.0305,0,-0.0808,-0.0813,-0.0848,-0.0846,-0.0848,-0.0863,-0.0844,-0.0835,-0.0768,-0.0721,-0.0695,-0.0537,-0.0357,-0.0172,0.0053,0.0168,0.0345,0.0413,0.0351,0.0379,0.0427,0.0417,0.0547,0.0549,0.0551,0.0553,0.0554,0,-0.0845,-0.0871,-0.0895,-0.092,-0.0924,-0.0938,-0.0944,-0.0891,-0.0873,-0.0754,-0.0732,-0.0552,-0.0405,-0.0071,0.0159,0.0406,0.0406,0.052,0.0503,0.0433,0.0456,0.0443,0.0432,0.0512,0.0512,0.0513,0.0514,0,-0.09,-0.0907,-0.0932,-0.0987,-0.1012,-0.1032,-0.1032,-0.1032,-0.0955,-0.0885,-0.0755,-0.0626,-0.0309,-0.0031,0.0278,0.0418,0.0475,0.0542,0.0511,0.0447,0.0408,0.0427,0.0415,0.0519,0.0519,0.0518,0.0518,0.0518,-0.0931,-0.0964,-0.0998,-0.1044,-0.108,-0.1108,-0.1112,-0.1081,-0.1031,-0.0896,-0.0777,-0.0537,-0.0296,0.0165,0.0369,0.0562,0.0558,0.0611,0.0606,0.0601,0.0569,0.0535,0.0664,0.0664,0.0664,0.0664,0.0664,0,-0.0961,-0.0996,-0.105,-0.1102,-0.1144,-0.1147,-0.1151,-0.1113,-0.1035,-0.0876,-0.0708,-0.0396,-0.0087,0.0167,0.0476,0.0648,0.0627,0.0675,0.0609,0.0603,0.0598,0.0562,0.0657,0.0658,0.0658,0.0658,0,0,-0.0978,-0.1031,-0.1057,-0.1132,-0.117,-0.1191,-0.1186,-0.11,-0.0973,-0.0789,-0.0593,-0.0355,-0.0054,0.0163,0.0368,0.0524,0.0519,0.054,0.0528,0.042,0.0412,0.0546,0.0484,0,0,0,0,0]}],[{"header":{"parameterUnit":"m.s-1","parameterCategory":2,"la1":30.2991,"la2":30.254,"lo1":-89.0895,"lo2":-89.0444,"dy":0.0017,"dx":0.0017,"nx":28,"ny":28,"refTime":"2025-03-07T03:00:00:Z","depth":"4","parameterNumber":2,"parameterNumberName":"U-component_of_CURRENTS"},"data":[0,0,0,0,0,0,0,0,0,0,0,0,0,0,0,0,0,0,0,0,0,0,0,0,0,0,0,0,0,0,0,0,0,0,0,0,0,0,0,0,0,0,0,0,0,0,0,0,0,0,0,0,0,0,0,0,0,0,-0.1707,-0.1708,0,-0.1755,-0.1755,-0.1756,-0.1774,-0.1775,-0.1775,-0.1775,-0.1812,-0.1812,-0.1813,0,0,0,0,0,0,0,0,0,0,0,0,0,-0.1611,-0.1613,-0.1707,-0.1708,-0.1709,-0.1755,-0.1755,-0.1756,-0.1774,-0.1775,-0.1775,-0.1775,-0.1811,-0.1812,-0.1813,0,0,0,0,0,0,0,0,0,0,0,0,0,-0.1652,-0.1613,-0.1707,-0.1726,-0.1728,-0.1755,-0.1755,-0.1756,-0.1774,-0.1775,-0.1775,-0.1775,-0.1811,-0.1812,-0.1813,-0.1817,0,0,-0.1817,-0.1818,0,0,0,0,0,0,0,0,-0.165,-0.1655,-0.1722,-0.1725,-0.1727,-0.1762,-0.1735,-0.1777,-0.1774,-0.1753,-0.1775,-0.1775,-0.1796,-0.1798,-0.1803,-0.1818,-0.182,-0.1817,-0.1818,-0.1819,-0.1819,0,0,0,0,0,0,0,-0.1647,-0.1653,-0.1723,-0.1723,-0.1726,-0.1725,-0.1731,-0.1743,-0.177,-0.1755,-0.1758,-0.1768,-0.1797,-0.1801,-0.1804,-0.182,-0.1817,-0.1818,-0.1819,-0.182,-0.1909,-0.191,0,0,0,0,0,0,-0.1649,-0.1651,-0.1721,-0.1724,-0.1692,-0.1727,-0.1734,-0.1748,-0.177,-0.1775,-0.1768,-0.1769,-0.1799,-0.1802,-0.1805,-0.1868,-0.1819,-0.182,-0.1821,-0.1907,-0.1909,-0.1911,0,0,0,0,0,0,-0.1646,-0.1655,-0.1719,-0.1691,-0.17,-0.1729,-0.1745,-0.1749,-0.1782,-0.178,-0.1784,-0.18,-0.1799,-0.1803,-0.1838,-0.1868,-0.182,-0.1822,-0.1905,-0.1908,-0.191,-0.1958,0,0,0,0,0,0,-0.1643,-0.1653,-0.1675,-0.1691,-0.1701,-0.1749,-0.1745,-0.175,-0.1787,-0.179,-0.1809,-0.1811,-0.18,-0.1836,-0.1839,-0.1868,-0.1823,-0.1903,-0.1907,-0.1909,-0.1954,-0.1961,-0.1968,0,0,0,0,0,-0.164,-0.1661,-0.1675,-0.1685,-0.1726,-0.175,-0.1755,-0.1774,-0.1789,-0.1805,-0.1822,-0.1812,-0.1858,-0.1838,-0.1842,-0.1872,-0.1902,-0.1906,-0.1909,-0.1951,-0.196,-0.1968,0,0,0,0,0,0,-0.1629,-0.1666,-0.1681,-0.1714,-0.1739,-0.1755,-0.1777,-0.1794,-0.182,-0.1832,-0.183,-0.1833,-0.1873,-0.1871,-0.185,-0.1908,-0.1879,-0.1884,-0.191,-0.1919,-0.1925,-0.1933,-0.1824,0,0,0,0,0,-0.1638,-0.1667,-0.1696,-0.1725,-0.1741,-0.1767,-0.1786,-0.1802,-0.1823,-0.1837,-0.1852,-0.1871,-0.1886,-0.1902,-0.1911,-0.1946,-0.193,-0.197,-0.1976,-0.1982,-0.1992,-0.1997,-0.2004,-0.1923,-0.1923,-0.1923,0,0,-0.1644,-0.1668,-0.1686,-0.1725,-0.1748,-0.1774,-0.1779,-0.1816,-0.1844,-0.1837,-0.1886,-0.1895,-0.1901,-0.1934,-0.1952,-0.194,-0.1995,-0.1987,-0.1991,-0.1998,-0.2001,-0.2009,-0.2016,-0.1925,-0.1925,-0.1925,0,0,-0.1654,-0.1691,-0.1714,-0.1739,-0.1781,-0.1799,-0.1818,-0.1854,-0.1879,-0.1921,-0.1925,-0.1959,-0.1983,-0.1995,-0.2002,-0.2058,-0.2028,-0.2064,-0.2108,-0.2113,-0.2119,-0.2125,-0.2098,-0.2101,-0.2071,-0.2071,-0.2071,0,-0.1659,-0.1693,-0.1724,-0.1748,-0.1777,-0.1815,-0.1845,-0.1873,-0.1918,-0.1945,-0.1944,-0.2002,-0.2012,-0.2053,-0.2074,-0.2074,-0.2058,-0.2073,-0.212,-0.2126,-0.213,-0.2102,-0.2104,-0.2074,-0.2073,-0.2073,-0.2073,0,-0.1674,-0.1714,-0.1731,-0.1778,-0.1811,-0.1846,-0.1889,-0.1933,-0.1971,-0.1996,-0.2055,-0.2069,-0.2103,-0.2116,-0.2113,-0.2161,-0.2131,-0.2123,-0.2095,-0.2141,-0.2108,-0.211,-0.2077,-0.2076,-0.2076,-0.2075,0,0,-0.1647,-0.1728,-0.1736,-0.1768,-0.1835,-0.186,-0.1922,-0.1981,-0.2023,-0.207,-0.2115,-0.2162,-0.2178,-0.2189,-0.2196,-0.2212,-0.2231,-0.219,-0.2189,-0.2155,-0.2218,-0.2062,-0.2048,-0.2228,-0.2229,-0.2229,-0.2175,0,-0.1651,-0.1706,-0.1749,-0.1809,-0.1841,-0.1904,-0.1954,-0.2014,-0.2064,-0.2114,-0.2153,-0.2192,-0.2202,-0.2222,-0.2245,-0.2235,-0.2241,-0.2245,-0.2187,-0.2185,-0.2033,-0.2047,-0.2233,-0.2176,-0.2177,-0.2177,-0.2177,0,-0.1641,-0.1684,-0.1747,-0.1832,-0.1854,-0.1898,-0.1992,-0.204,-0.2119,-0.2156,-0.2212,-0.2231,-0.228,-0.227,-0.2287,-0.2287,-0.2264,-0.2249,-0.2246,-0.2087,-0.2031,-0.2126,-0.2179,-0.2179,-0.2179,-0.2179,-0.2179,0,-0.1592,-0.168,-0.1736,-0.1764,-0.1863,-0.1913,-0.197,-0.2057,-0.2099,-0.2183,-0.2212,-0.2268,-0.229,-0.2291,-0.2278,-0.2283,-0.2265,-0.2261,-0.2094,-0.2082,-0.2218,-0.2213,-0.2262,-0.2262,-0.2262,-0.2262,-0.2262,0,-0.1562,-0.1607,-0.1724,-0.1748,-0.1812,-0.1894,-0.1964,-0.2029,-0.2112,-0.2143,-0.2228,-0.224,-0.2299,-0.2295,-0.2278,-0.2179,-0.2263,-0.2095,-0.2059,-0.2237,-0.2235,-0.2218,-0.2213,-0.226,-0.226,-0.2261,-0.2261,0,-0.1486,-0.1571,-0.1632,-0.175,-0.1788,-0.1831,-0.1945,-0.1983,-0.2082,-0.2122,-0.2147,-0.2224,-0.2204,-0.2226,-0.2211,-0.215,-0.2088,-0.2032,-0.2204,-0.2179,-0.19,-0.1899,-0.1831,-0.1825,-0.182,-0.1816,-0.1812,0,-0.1448,-0.1476,-0.1607,-0.1642,-0.1698,-0.178,-0.1826,-0.1947,-0.1979,-0.2082,-0.2076,-0.2105,-0.2131,-0.1977,-0.2027,-0.1959,-0.1942,-0.1903,-0.1922,-0.1885,-0.1857,-0.1864,-0.187,-0.1804,-0.1803,-0.1801,-0.18,0,-0.1359,-0.1425,-0.1473,-0.1546,-0.1609,-0.1663,-0.174,-0.1749,-0.1866,-0.1977,-0.1937,-0.1913,-0.1879,-0.1855,-0.1812,-0.1775,-0.1928,-0.185,-0.1861,-0.1878,-0.1852,-0.1831,-0.1843,-0.1783,-0.1785,-0.1787,-0.1788,0,-0.1286,-0.1299,-0.1376,-0.1422,-0.1497,-0.1513,-0.1576,-0.1602,-0.1647,-0.1768,-0.1743,-0.1777,-0.1846,-0.1756,-0.1721,-0.1665,-0.1641,-0.1601,-0.1624,-0.1644,-0.1609,-0.155,-0.1348,0,0,0,0,0,-0.12,-0.1203,-0.1241,-0.1287,-0.1357,-0.1395,-0.1497,-0.1565,-0.1682,-0.16,-0.1666,-0.1622,-0.1561,-0.1588,-0.1485,-0.1634,-0.1651,-0.151,-0.1619,-0.1686,-0.1706,-0.1684,0,0,0,0,0,0,-0.1143,-0.1177,-0.1192,-0.1159,-0.1162,-0.1219,-0.1275,-0.1361,-0.133,-0.1451,-0.142,-0.1515,-0.1475,-0.1576,-0.1444,-0.1451,-0.1485,-0.1544,-0.154,-0.1674,-0.1693,-0.1709,-0.1693,0,0,0,0,0]},{"header":{"parameterUnit":"m.s-1","parameterCategory":2,"la1":30.2991,"la2":30.254,"lo1":-89.0895,"lo2":-89.0444,"dy":0.0017,"dx":0.0017,"nx":28,"ny":28,"refTime":"2025-03-07T03:00:00:Z","depth":"4","parameterNumber":3,"parameterNumberName":"V-component_of_CURRENTS"},"data":[0,0,0,0,0,0,0,0,0,0,0,0,0,0,0,0,0,0,0,0,0,0,0,0,0,0,0,0,0,0,0,0,0,0,0,0,0,0,0,0,0,0,0,0,0,0,0,0,0,0,0,0,0,0,0,0,0,0,-0.0216,-0.0215,0,-0.0181,-0.018,-0.018,-0.0141,-0.014,-0.0139,-0.0139,-0.0045,-0.0043,-0.0041,0,0,0,0,0,0,0,0,0,0,0,0,0,-0.023,-0.023,-0.0216,-0.0215,-0.0215,-0.0181,-0.018,-0.018,-0.0141,-0.014,-0.0139,-0.0138,-0.0046,-0.0044,-0.0041,0,0,0,0,0,0,0,0,0,0,0,0,0,-0.0213,-0.023,-0.0216,-0.0191,-0.0188,-0.0181,-0.018,-0.018,-0.0141,-0.014,-0.0139,-0.0138,-0.0047,-0.0044,-0.0041,-0.0043,0,0,-0.0032,-0.0031,0,0,0,0,0,0,0,0,-0.0214,-0.0212,-0.0195,-0.0192,-0.0189,-0.0164,-0.0151,-0.0131,-0.0141,-0.0159,-0.0139,-0.0138,-0.008,-0.0074,-0.0071,-0.0038,-0.0034,-0.0032,-0.003,-0.0029,-0.0028,0,0,0,0,0,0,0,-0.0215,-0.0213,-0.0202,-0.0194,-0.0191,-0.0175,-0.0171,-0.0147,-0.0125,-0.0158,-0.0155,-0.015,-0.0078,-0.0074,-0.0069,-0.0033,-0.0032,-0.003,-0.0028,-0.0027,0.0023,0.0022,0,0,0,0,0,0,-0.022,-0.0215,-0.0204,-0.0201,-0.0199,-0.0175,-0.0172,-0.0173,-0.0126,-0.0118,-0.0151,-0.0148,-0.008,-0.0072,-0.0065,-0.0054,-0.0029,-0.0027,-0.0025,0.0023,0.0023,0.0022,0,0,0,0,0,0,-0.0221,-0.022,-0.0205,-0.0206,-0.0203,-0.0176,-0.0178,-0.0173,-0.0168,-0.0122,-0.0112,-0.015,-0.0079,-0.0069,-0.0049,-0.005,-0.0025,-0.0023,0.0024,0.0023,0.0023,-0.0038,0,0,0,0,0,0,-0.0222,-0.0221,-0.0226,-0.0207,-0.0203,-0.0209,-0.0179,-0.0173,-0.0166,-0.0162,-0.0118,-0.0109,-0.0077,-0.0054,-0.0046,-0.0046,-0.002,0.0024,0.0023,0.0023,-0.0035,-0.004,-0.0045,0,0,0,0,0,-0.0222,-0.0239,-0.0227,-0.0226,-0.0212,-0.021,-0.0207,-0.0184,-0.0167,-0.0174,-0.0142,-0.011,-0.0052,-0.0052,-0.0043,-0.0042,0.0025,0.0024,0.0023,-0.0033,-0.0039,-0.0044,0,0,0,0,0,0,-0.0248,-0.0236,-0.0223,-0.0234,-0.0225,-0.0203,-0.0208,-0.019,-0.0172,-0.0166,-0.0119,-0.0108,-0.0092,-0.0061,-0.0062,-0.003,-0.0007,-0.0006,-0.0052,-0.0058,-0.0062,-0.0059,-0.0018,0,0,0,0,0,-0.0257,-0.0266,-0.0248,-0.0258,-0.0256,-0.0232,-0.0228,-0.0214,-0.0194,-0.0185,-0.0154,-0.0119,-0.009,-0.007,-0.0046,-0.003,0.0017,-0.0021,-0.0026,-0.003,-0.0022,0.0047,0.005,0.002,0.002,0.002,0,0,-0.0269,-0.0264,-0.0268,-0.0264,-0.0254,-0.0261,-0.0228,-0.023,-0.0228,-0.0177,-0.0169,-0.0139,-0.0092,-0.0076,-0.0064,-0.0048,-0.0002,-0.0031,-0.0035,-0.0024,0.0047,0.005,0.0053,0.0019,0.0019,0.0019,0,0,-0.0302,-0.0294,-0.0313,-0.031,-0.0301,-0.0287,-0.0289,-0.0273,-0.0258,-0.0252,-0.0209,-0.0175,-0.0146,-0.0101,-0.0076,-0.009,-0.0035,-0.0088,-0.0101,-0.0034,-0.0031,-0.0027,0.0016,0.0024,-0.0083,-0.0083,-0.0083,0,-0.0316,-0.0335,-0.0319,-0.0335,-0.0333,-0.0302,-0.0317,-0.0303,-0.028,-0.0262,-0.0258,-0.0189,-0.0153,-0.0102,-0.011,-0.0097,-0.0062,-0.0085,-0.0039,-0.0035,-0.003,0.0014,0.0024,-0.0086,-0.0086,-0.0086,-0.0085,0,-0.0361,-0.0374,-0.0387,-0.0393,-0.0391,-0.0401,-0.0376,-0.0368,-0.0348,-0.0321,-0.0281,-0.0233,-0.0183,-0.017,-0.0146,-0.0093,-0.0082,-0.0059,-0.0025,-0.003,0.0016,0.0027,-0.0091,-0.009,-0.0089,-0.0088,0,0,-0.0396,-0.0415,-0.0419,-0.0427,-0.0421,-0.0424,-0.0418,-0.0395,-0.0379,-0.035,-0.0319,-0.0267,-0.0229,-0.0197,-0.0153,-0.0095,-0.0041,-0.007,-0.0065,-0.0028,0.009,0.0063,0.0074,-0.0012,-0.001,-0.0008,0.0101,0,-0.0434,-0.0478,-0.0472,-0.0501,-0.0516,-0.0484,-0.048,-0.0451,-0.0418,-0.0383,-0.0309,-0.0271,-0.0241,-0.0217,-0.0155,-0.007,-0.0011,-0.0073,0.009,0.0095,0.0073,0.0086,-0.0002,0.011,0.0112,0.0114,0.0116,0,-0.0479,-0.0499,-0.0542,-0.0545,-0.0548,-0.056,-0.0532,-0.0524,-0.0458,-0.0428,-0.0365,-0.0309,-0.0223,-0.02,-0.0043,-0.0088,-0.0005,0.0063,0.007,0.0079,0.009,0.0122,0.0137,0.0135,0.0134,0.0132,0.0131,0,-0.0511,-0.0543,-0.0578,-0.0583,-0.0586,-0.0591,-0.0587,-0.0539,-0.0523,-0.0451,-0.0427,-0.0317,-0.0263,-0.0142,-0.0013,-0.0024,0.0158,0.0168,0.0227,0.0226,0.0244,0.0239,0.0291,0.0291,0.029,0.029,0.029,0,-0.0549,-0.0576,-0.06,-0.0619,-0.0649,-0.0632,-0.0642,-0.0615,-0.0569,-0.0543,-0.0454,-0.0401,-0.0244,-0.0127,-0.0011,0.0136,0.0167,0.0232,0.026,0.0211,0.0202,0.0251,0.0245,0.0294,0.0293,0.0292,0.0292,0,-0.0579,-0.0598,-0.0639,-0.0659,-0.0671,-0.0691,-0.0696,-0.0691,-0.0644,-0.0606,-0.0584,-0.0453,-0.0303,-0.0146,0.0058,0.0134,0.0283,0.0332,0.0256,0.0276,0.0303,0.0292,0.0406,0.0406,0.0406,0.0407,0.0407,0,-0.0598,-0.0625,-0.0676,-0.0707,-0.0724,-0.0752,-0.0767,-0.0737,-0.0722,-0.0631,-0.0608,-0.0463,-0.0363,-0.0091,0.0062,0.0282,0.0311,0.0377,0.035,0.0303,0.0319,0.0308,0.0297,0.0407,0.0407,0.0407,0.0407,0,-0.0624,-0.0649,-0.0681,-0.075,-0.0787,-0.0817,-0.0831,-0.0824,-0.0771,-0.0734,-0.0601,-0.0456,-0.0287,-0.0088,0.008,0.0237,0.0325,0.0378,0.0379,0.0355,0.0305,0.0318,0.0308,0.0407,0.0407,0.0407,0.0407,0,-0.064,-0.0672,-0.0723,-0.0775,-0.0832,-0.0859,-0.0864,-0.0824,-0.0796,-0.0686,-0.0642,-0.045,-0.0333,-0.011,0.0047,0.0191,0.0223,0.026,0.0268,0.0269,0.0187,0.0101,0.0173,0,0,0,0,0,-0.0646,-0.0683,-0.0742,-0.0798,-0.0855,-0.088,-0.0892,-0.088,-0.0831,-0.0739,-0.0684,-0.0518,-0.0269,-0.0154,-0.0012,0.0025,0.0224,0.0192,0.0264,0.041,0.0409,0.0334,0,0,0,0,0,0,-0.0652,-0.071,-0.0738,-0.0801,-0.0843,-0.0893,-0.0901,-0.087,-0.0802,-0.0734,-0.0592,-0.0502,-0.0256,-0.0347,-0.0013,0.003,0.009,0.0316,0.0318,0.041,0.041,0.0409,0.0331,0,0,0,0,0]}]]